Location: Maccacari
(45.1333°N, 11.1333°E)
Time: 07:36:47
(UTC+00:00)

ATLAS 2AS CENTAUR R/B - Pass Details

Date: 18 September 2020
Orbit: 939 x 1273 km, 63.7° (Epoch: 27 October)

Event Time Altitude Azimuth Distance (km) Brightness Sun altitude
Rises 21:01:32 0° 225° (SW) 4,193 5.8 -35.5°
Reaches altitude 10° 21:04:20 10° 228° (SW) 3,246 5.2 -35.8°
Enters shadow 21:04:49 12° 228° (SW) 3,086 5.0 -35.9°
Exits shadow 21:11:57 69° 297° (WNW) 1,354 3.2 -36.7°
Maximum altitude 21:12:15 69° 311° (NW) 1,349 3.2 -36.7°
Drops below altitude 10° 21:20:07 10° 35° (NE) 3,224 5.4 -37.5°
Sets 21:22:54 0° 38° (NE) 4,163 6.0 -37.8°
